Wind_Speed
19 19 19 20 20 20 19 20 20 20 20 20 20 20 20 20 20 20 20 21 21 22 22 23 24 25 26 28 29 30 33 30 25 19 8 0 5 4 1 7 9 10 11 10 11 9 6 5 6 8 3 4 1 2 2 1 2 2 3 5 7 6 6 7 8 7 6 6 5 5 6 6 4 2 2 3 5 5 5 3 2 3 5 5 7 15 24 26
19 19 19 20 20 20 20 20 20 20 20 20 20 20 20 20 20 20 20 21 21 22 22 22 23 24 26 27 28 29 32 28 19 12 6 1 5 3 2 7 7 9 11 11 13 9 5 4 6 8 3 2 1 1 2 1 3 3 4 5 8 6 6 7 9 7 6 7 5 6 6 6 6 4 1 1 2 2 3 4 4 2 3 7 10 16 21 25
19 20 20 20 21 21 21 21 21 21 20 20 20 20 20 20 20 20 20 20 20 21 21 22 23 23 26 27 26 28 28 19 8 5 7 4 5 3 4 6 7 10 12 11 10 7 3 2 3 4 3 1 1 1 3 2 3 3 3 5 7 5 5 6 9 9 8 7 5 5 6 5 5 4 2 4 5 4 4 4 3 4 4 6 9 12 16 18
20 20 21 21 21 21 21 21 21 21 21 21 20 20 20 20 19 19 20 20 19 20 20 21 22 22 25 26 25 26 19 8 2 2 6 7 6 6 5 7 8 10 12 10 7 5 4 1 1 3 3 1 2 1 3 3 2 2 4 7 5 5 6 7 8 9 8 7 7 6 5 5 5 4 4 4 4 4 5 6 6 7 6 6 8 11 14 12
21 21 21 21 21 21 21 21 21 21 21 21 21 20 20 20 19 19 19 19 19 19 20 20 21 22 24 25 23 21 11 3 1 2 4 5 6 6 6 7 9 11 11 10 6 6 5 2 3 4 3 1 1 1 3 4 2 1 5 5 3 5 5 6 7 8 8 7 7 6 6 5 4 4 5 7 6 5 5 7 8 7 6 8 9 10 12 12
22 22 22 22 22 22 22 22 22 21 21 21 20 20 20 19 19 19 18 18 18 18 18 19 20 21 23 24 20 11 3 0 2 5 2 1 3 4 7 8 10 11 9 9 9 9 7 5 4 3 2 1 1 2 3 4 1 3 5 2 2 4 2 3 4 6 7 8 8 6 6 4 5 5 6 9 9 6 7 8 9 7 9 10 9 10 11 13
22 23 23 23 23 23 23 22 22 22 22 21 21 20 20 20 20 20 19 18 18 17 17 17 19 19 22 23 14 4 2 3 2 5 1 1 2 4 6 8 10 10 9 11 12 7 5 7 5 2 2 1 1 2 3 5 2 2 4 3 4 2 3 4 2 4 4 8 9 2 4 7 9 8 4 7 9 7 7 6 8 7 9 11 10 11 12 13
23 23 23 24 23 23 23 23 22 22 23 22 22 21 21 21 20 20 19 18 18 17 16 16 16 17 21 20 9 3 2 4 2 5 1 1 1 4 5 6 10 11 11 13 11 5 3 6 4 2 2 1 1 2 3 4 3 1 3 4 4 1 4 5 4 5 4 6 5 2 4 9 10 5 3 8 9 7 7 4 7 9 9 10 11 12 10 10
24 24 23 24 24 23 23 23 23 23 23 23 22 22 22 22 21 20 19 18 17 16 15 14 14 14 17 13 4 2 4 5 6 4 3 1 2 4 5 6 9 10 10 10 10 8 4 3 2 2 2 1 1 2 4 1 1 1 2 4 4 3 4 4 4 4 3 3 2 3 9 8 5 1 2 9 9 7 6 4 5 10 10 9 9 9 8 10
24 24 24 24 24 23 23 23 23 23 24 24 23 23 23 22 21 20 19 17 16 15 13 11 11 12 12 8 3 2 3 5 5 1 2 4 4 4 4 5 7 8 7 6 8 8 4 2 1 0 2 0 1 2 2 2 2 3 3 5 4 4 5 1 2 4 3 3 4 7 9 3 2 3 6 10 8 8 5 4 5 7 10 11 9 8 8 9
25 25 24 24 24 23 24 24 24 24 24 25 25 24 23 22 21 20 19 17 15 13 11 10 10 11 8 3 2 3 3 4 2 4 5 6 7 6 4 3 4 5 5 5 4 3 3 2 1 1 1 1 2 3 1 1 2 4 2 4 5 4 5 2 3 5 2 4 5 7 5 1 2 5 11 11 7 9 8 7 7 8 10 11 11 9 7 7
25 25 24 24 24 24 25 25 25 25 25 25 25 24 23 23 22 22 20 17 15 11 9 9 8 8 6 0 4 6 4 4 8 9 9 11 11 9 6 3 1 3 3 3 4 2 3 1 3 3 0 0 1 2 2 3 3 3 0 2 6 5 5 5 3 3 3 3 3 6 4 4 5 11 15 9 6 8 9 10 8 8 8 8 9 8 7 8
25 25 25 25 25 26 26 26 26 26 26 25 24 24 25 27 26 24 21 17 14 9 8 7 6 5 3 1 5 6 8 8 9 11 12 14 15 12 9 6 2 1 3 3 5 4 1 2 3 3 1 2 0 2 1 3 2 2 1 1 3 5 4 6 3 3 4 3 2 6 6 9 11 19 16 6 6 8 8 9 8 7 6 5 7 6 8 8
26 25 25 25 26 27 27 26 26 26 26 25 24 25 27 27 24 21 17 14 11 8 7 5 4 1 3 5 7 8 9 7 7 8 7 9 11 9 8 7 3 3 4 4 6 5 3 1 3 2 0 3 1 3 4 4 2 1 2 1 1 2 3 3 4 5 5 4 2 6 7 11 14 21 13 8 8 9 8 9 8 7 6 5 6 7 8 7
26 26 26 26 27 27 27 27 27 26 27 25 25 27 25 20 17 13 8 4 4 5 5 4 3 0 2 6 8 10 8 5 10 13 11 7 4 3 3 4 3 3 4 4 5 4 0 2 3 2 1 0 2 3 4 4 3 2 2 2 1 4 3 3 2 6 7 4 4 7 7 10 16 21 9 9 9 9 9 9 7 7 7 7 7 7 8 8
26 26 26 26 27 28 27 27 27 27 26 24 26 24 16 12 11 10 9 8 6 7 6 4 2 1 1 4 7 9 5 5 13 15 15 11 2 1 2 1 1 2 3 3 2 1 2 3 2 2 1 2 3 4 3 3 4 3 0 2 2 2 1 3 4 5 7 4 4 8 9 9 13 14 2 8 10 9 9 8 8 8 7 7 7 7 8 8
27 27 27 27 27 27 27 26 26 26 23 24 25 16 8 8 9 11 12 12 10 9 6 3 3 2 2 6 7 6 4 9 17 19 19 14 3 1 4 4 3 4 3 1 1 2 2 1 1 1 2 2 2 4 2 2 4 3 1 0 2 1 2 1 4 4 5 6 7 9 11 11 9 6 4 5 9 10 10 10 10 9 7 8 7 7 8 8
27 27 27 27 27 26 26 26 25 24 21 22 21 10 7 6 7 10 12 12 9 9 6 3 3 2 2 4 4 4 8 15 22 21 17 10 1 0 3 3 3 4 4 3 2 2 1 2 2 2 3 4 3 4 2 4 2 1 1 1 2 1 2 2 3 3 1 2 7 8 12 13 12 9 1 3 5 9 11 10 10 10 9 8 7 8 8 8
28 28 28 27 27 26 26 25 23 22 19 20 16 6 6 6 3 4 5 6 4 3 1 0 2 1 2 4 5 8 13 16 18 14 8 6 1 2 3 2 3 4 3 2 2 2 1 2 3 2 1 1 1 4 5 4 4 4 2 3 1 1 3 4 4 3 6 3 6 8 11 9 10 11 4 2 2 6 8 7 8 9 9 8 8 8 8 10
28 28 28 27 27 26 25 23 21 19 16 17 15 6 4 6 2 2 3 1 2 3 4 3 4 2 5 6 6 10 14 10 6 4 2 3 1 3 3 3 5 5 2 1 1 2 3 2 1 3 3 4 4 5 6 4 4 4 3 2 1 1 3 4 5 5 6 3 6 7 8 7 8 9 5 4 5 6 8 7 7 9 8 8 9 10 10 11
28 28 28 27 26 25 23 22 18 15 13 13 13 6 1 3 3 4 6 5 5 6 7 6 6 6 8 9 8 7 7 4 3 5 5 3 2 2 2 2 4 3 2 0 1 2 4 2 2 5 6 6 5 5 6 3 3 3 3 1 2 1 3 4 5 7 5 2 5 6 7 7 7 7 5 4 5 8 9 9 9 11 10 7 10 13 12 10
29 29 29 27 26 25 21 19 14 11 10 10 10 5 1 3 3 4 3 4 7 5 6 6 3 6 9 11 11 4 1 2 5 6 4 3 2 2 1 2 3 2 3 2 2 3 3 1 6 7 6 5 4 5 6 4 3 3 3 2 1 2 3 5 5 6 5 1 4 7 8 8 7 7 6 5 6 9 10 9 9 11 10 8 9 12 12 11
30 30 29 27 25 23 19 15 9 7 9 9 8 5 3 6 5 5 3 2 7 4 2 2 1 3 5 5 5 4 3 1 3 5 2 5 2 2 3 2 3 2 2 1 2 1 1 4 7 7 6 5 2 3 6 4 3 3 3 3 2 2 1 3 4 6 7 3 4 7 8 8 7 7 6 7 8 8 9 9 9 9 10 10 10 11 12 13
30 30 29 26 24 21 16 10 6 7 9 6 6 7 8 6 3 5 4 1 4 5 3 2 2 3 3 1 4 6 2 2 3 4 2 7 3 1 3 3 3 1 3 4 5 4 3 6 4 4 4 5 3 1 5 4 1 2 4 4 3 3 4 4 3 6 7 5 4 5 7 7 6 7 8 7 7 7 7 9 10 9 9 9 9 11 12 13
30 30 27 25 24 19 11 5 5 10 9 3 3 7 11 7 4 5 4 1 2 4 2 1 1 2 1 2 4 5 0 2 5 4 4 7 5 2 1 2 3 2 6 4 3 4 5 5 2 4 2 5 4 2 3 5 2 2 4 7 7 6 5 5 3 4 5 4 3 2 3 7 4 5 7 5 6 9 7 9 12 11 9 8 8 10 10 11
30 29 26 23 22 17 7 2 6 12 7 3 4 9 11 9 6 4 3 2 2 3 2 1 1 1 1 1 3 2 2 2 6 6 6 8 8 4 1 1 1 3 5 2 2 2 4 4 4 5 5 4 4 3 4 5 4 2 4 7 8 7 6 5 3 0 0 4 3 2 2 5 5 6 7 4 6 10 8 9 12 11 9 8 8 9 10 10
31 29 25 21 20 15 5 2 8 9 3 3 9 11 11 10 6 2 3 4 2 3 3 2 0 1 2 1 2 1 2 5 7 5 3 7 6 3 3 3 1 2 3 2 1 1 3 3 3 5 5 4 4 3 4 6 6 2 4 6 7 6 6 6 5 3 3 3 5 2 4 3 5 7 6 3 6 9 8 11 13 11 11 10 9 10 11 11
31 28 23 19 17 11 5 5 8 5 2 6 10 9 11 10 5 1 4 4 2 2 1 2 2 1 2 2 1 1 4 3 3 4 0 4 4 2 4 6 5 4 3 4 3 3 3 3 4 6 4 4 4 4 7 8 5 5 5 5 5 6 6 5 4 3 3 1 5 6 4 3 6 4 3 4 7 10 10 14 15 13 13 11 10 10 11 11
32 27 19 16 14 8 5 6 6 3 4 9 10 10 12 8 3 3 5 2 3 2 1 1 2 2 3 5 2 3 3 1 2 5 2 3 1 3 3 5 5 5 4 5 5 4 3 5 7 6 4 4 5 5 8 9 5 5 3 4 3 2 2 3 3 2 2 2 7 8 5 3 7 2 4 6 9 12 13 13 12 10 10 10 9 9 10 10
33 25 16 13 10 6 4 6 4 3 6 9 12 13 10 3 3 5 3 0 2 2 1 1 2 2 5 7 5 3 3 3 3 4 3 1 3 5 1 2 3 3 2 2 4 4 3 2 3 4 4 5 6 4 6 9 7 3 3 2 3 3 2 1 1 2 1 4 10 11 7 5 6 3 7 9 8 10 10 8 7 7 8 9 9 9 9 9
33 22 12 10 8 5 4 4 4 6 9 11 14 11 5 2 4 5 1 1 1 3 3 2 3 4 4 5 5 3 2 4 3 2 2 1 2 4 2 1 2 1 1 3 3 3 3 1 1 2 3 4 4 3 3 5 5 3 3 2 0 2 2 3 2 2 2 6 9 11 8 7 8 6 6 8 7 5 6 7 8 8 9 9 8 9 9 9
29 17 8 7 7 6 4 4 8 10 11 13 11 5 3 3 3 2 1 2 1 2 2 1 3 4 4 3 4 4 3 4 2 2 2 1 1 1 2 3 2 1 2 3 3 3 3 4 4 3 2 5 6 3 1 1 3 4 3 4 3 1 1 0 2 2 5 8 4 4 5 7 10 8 6 10 9 6 7 7 7 8 8 8 7 8 8 8
24 12 6 5 7 8 7 8 10 11 13 12 7 3 5 4 2 2 2 2 1 3 2 2 4 6 6 5 4 3 2 3 2 1 2 2 2 3 5 5 6 4 4 2 1 1 2 4 4 4 3 5 8 5 3 2 3 5 4 5 4 2 2 3 4 2 5 8 4 3 3 4 7 6 10 15 15 13 12 10 8 8 9 9 8 7 7 8
19 9 6 6 7 8 8 8 9 10 14 11 3 4 6 4 1 3 2 2 2 3 2 2 6 9 5 2 3 2 1 3 3 1 1 1 1 3 4 5 7 7 3 1 1 2 3 5 3 6 3 5 10 10 7 6 4 5 4 4 4 4 3 4 3 4 5 4 3 4 4 3 3 4 9 14 15 16 15 13 13 12 11 10 9 8 8 8
16 8 6 6 7 7 6 6 6 9 12 7 5 5 5 2 2 2 2 3 2 3 4 4 6 8 4 2 4 3 2 3 2 2 2 2 3 4 2 3 7 6 2 2 2 2 4 6 5 6 3 6 10 8 7 7 4 4 4 4 4 4 3 2 2 3 3 2 2 2 3 5 4 5 7 8 9 11 14 15 16 17 15 11 10 11 10 8
13 5 4 7 8 7 5 4 4 8 9 5 5 4 2 2 2 1 2 3 2 4 7 8 4 4 3 2 3 2 3 3 1 1 2 3 5 6 4 3 5 8 6 4 2 2 3 4 4 4 3 6 9 6 7 7 5 2 3 4 4 3 3 1 3 3 2 2 2 3 6 6 4 7 10 10 11 9 9 13 15 17 17 13 11 11 10 9
13 6 6 11 13 7 3 3 4 8 7 5 5 2 1 3 2 2 2 3 4 2 3 5 1 2 2 2 3 2 1 2 2 1 2 2 3 4 4 2 4 10 10 5 1 2 3 4 5 3 4 6 5 4 6 8 6 4 4 5 3 3 2 2 3 2 2 2 3 4 8 7 3 5 6 8 13 11 8 10 12 14 14 13 12 12 11 11
12 4 4 13 15 6 2 2 4 6 5 5 4 2 1 2 3 3 3 4 4 1 1 3 1 1 2 2 4 3 2 1 1 2 2 1 1 1 3 2 3 8 10 7 3 2 3 3 5 3 5 3 2 3 3 4 3 3 4 6 5 3 4 4 3 2 2 4 4 4 9 8 6 6 4 6 12 13 11 10 9 11 12 12 12 12 12 10
8 2 3 13 14 6 3 3 3 5 5 4 3 1 1 3 4 4 4 4 3 1 2 3 2 1 2 3 5 4 3 3 3 2 2 1 2 2 4 3 3 6 9 8 5 2 3 2 4 2 1 1 2 2 3 2 2 1 0 3 3 2 2 3 3 2 2 4 4 5 7 6 5 6 6 9 12 12 13 11 10 11 12 11 11 11 11 10
5 2 2 11 12 5 4 4 3 4 3 2 1 2 1 3 5 6 6 3 2 2 2 3 3 2 3 5 6 4 2 4 3 2 2 2 2 3 4 4 2 3 8 10 6 2 2 3 3 3 2 1 1 3 7 7 6 4 2 3 3 2 1 1 2 3 2 3 3 4 6 5 4 4 8 13 14 12 14 13 12 12 11 11 11 11 10 10
4 3 2 10 8 2 5 5 2 4 2 1 2 3 2 3 4 6 6 3 3 4 3 3 4 3 4 5 5 2 1 3 3 2 3 3 2 3 4 4 3 2 5 6 5 3 3 2 3 1 0 3 5 5 8 10 9 7 6 6 6 5 3 2 4 5 4 3 3 3 5 5 4 5 6 10 12 13 15 14 13 14 15 14 12 11 12 10
3 2 1 10 7 1 5 4 1 3 1 1 3 4 5 5 4 5 5 2 2 4 2 2 4 4 4 4 3 2 2 3 3 3 3 4 4 4 4 4 4 3 4 4 5 6 4 1 2 4 4 6 5 3 6 8 8 6 6 7 7 5 4 4 5 5 5 6 4 4 6 5 6 8 8 8 11 14 15 15 14 15 16 14 12 11 10 10
3 1 2 11 8 1 3 3 2 3 0 3 5 5 4 4 3 3 4 4 2 2 1 2 4 3 3 4 2 2 2 3 3 4 3 4 4 6 6 4 3 2 2 2 4 5 3 2 3 5 4 5 6 3 4 6 5 4 6 7 7 8 7 5 3 3 4 5 5 5 6 6 9 9 6 7 9 11 12 13 14 15 13 11 11 10 9 10
1 3 3 10 9 2 3 2 1 3 3 5 5 4 4 3 3 4 5 5 3 1 2 3 3 3 3 3 2 3 2 2 3 4 4 3 3 6 6 6 5 4 3 3 3 4 3 2 3 3 3 4 4 3 4 7 7 6 6 8 10 12 11 6 4 3 2 4 7 5 4 8 10 5 3 8 9 8 11 11 13 15 13 11 11 11 11 10
2 1 3 8 11 7 3 2 2 2 5 5 5 5 4 2 3 5 6 6 4 1 2 4 5 5 5 3 4 5 4 4 4 3 3 3 3 5 5 5 7 6 7 8 7 6 4 2 3 4 4 5 5 3 2 4 6 5 6 11 14 14 14 9 4 4 5 4 4 4 5 11 12 8 10 13 11 11 12 10 9 12 12 11 11 11 10 9
2 2 3 6 8 6 2 2 3 2 3 5 5 4 3 3 4 5 5 4 3 2 3 5 5 5 4 5 7 7 4 6 7 4 4 4 3 3 5 7 7 10 14 14 9 5 2 2 6 8 9 9 8 5 2 4 6 7 9 13 14 15 16 9 3 5 6 1 2 8 11 13 15 14 14 15 13 14 14 11 9 9 10 11 12 11 9 9
2 1 2 3 3 3 3 3 4 3 3 3 3 3 4 7 7 5 4 2 3 6 4 4 2 3 5 8 8 6 4 4 7 6 6 6 4 4 8 10 8 9 14 13 8 4 1 3 8 11 14 15 12 10 5 6 8 11 11 12 14 15 14 11 9 8 4 3 7 13 10 8 14 16 15 16 16 16 15 13 12 9 9 10 8 7 8 9
2 1 0 0 1 2 2 3 5 5 5 3 1 2 5 8 7 5 4 4 6 6 3 2 4 6 9 11 7 4 5 5 4 4 4 5 4 5 6 7 4 3 1 4 7 5 2 4 5 8 14 17 15 15 10 6 7 9 11 11 13 15 16 16 14 9 5 7 12 7 1 6 14 16 17 18 18 16 15 15 13 10 9 8 6 7 8 9
2 1 1 1 0 1 2 5 6 6 5 3 2 2 4 7 8 5 3 4 6 5 1 4 9 12 13 12 8 5 5 6 4 3 2 4 5 4 3 3 2 5 6 2 3 2 1 4 4 5 11 14 12 12 9 6 6 8 11 11 11 13 15 14 12 10 8 11 13 10 11 15 17 18 19 20 17 14 13 13 13 11 9 7 8 9 10 11
2 1 2 2 2 3 3 3 4 4 4 3 2 2 3 4 7 9 6 4 6 5 2 6 13 15 13 11 8 6 7 6 8 8 6 6 6 2 1 3 2 0 2 3 2 1 2 2 2 3 5 8 4 4 6 5 3 4 8 11 12 11 11 11 11 9 7 11 14 14 15 17 18 18 16 15 13 10 11 12 12 10 8 7 9 10 11 12
3 1 2 1 3 3 1 2 2 2 3 2 1 3 3 2 4 10 10 6 7 7 6 8 14 14 12 10 9 9 9 8 12 14 11 10 8 3 2 3 2 1 1 2 2 2 3 2 2 1 2 5 4 3 7 5 1 1 5 10 13 12 10 10 9 7 8 13 14 12 11 14 16 13 9 11 12 9 10 12 10 7 6 7 9 10 11 12
5 3 2 1 2 3 2 2 2 1 1 2 2 3 4 6 7 9 8 4 5 8 7 7 11 11 10 12 12 11 11 13 16 15 11 10 10 8 7 7 5 3 2 2 2 2 3 2 3 2 2 3 4 2 7 6 3 2 7 10 12 12 10 9 8 9 13 13 9 9 12 14 13 8 7 12 13 9 9 9 8 6 5 6 8 9 10 11
Wind_Direction
342 341 340 341 341 340 340 339 337 335 334 333 333 332 331 333 332 331 330 330 332 332 332 332 332 332 331 331 331 333 332 331 333 332 339 250 192 170 69 350 345 354 359 355 359 3 11 22 6 8 95 141 73 190 202 173 128 119 149 206 218 197 200 182 182 188 170 210 208 177 177 175 216 267 295 5 45 331 337 28 313 343 31 69 118 128 134 140
342 340 339 339 338 336 335 334 334 334 333 332 332 332 331 331 331 331 330 329 330 331 332 332 333 332 331 331 331 334 332 329 327 325 341 110 163 149 20 358 355 3 7 4 3 14 36 7 341 360 68 148 291 172 196 208 166 175 154 206 223 194 192 182 179 182 173 199 189 172 182 183 201 192 184 264 202 251 335 323 303 335 47 84 114 131 141 146
341 340 338 338 337 336 334 332 333 333 331 331 331 330 330 329 330 329 329 330 329 330 331 332 332 332 332 329 331 335 330 329 334 353 21 95 126 74 28 8 11 13 10 5 357 3 12 319 318 9 56 156 265 136 180 215 194 191 161 212 229 184 191 202 184 188 195 197 181 178 181 187 207 177 160 218 211 195 203 246 262 242 218 140 133 140 146 156
341 340 338 336 336 335 333 331 330 330 329 329 330 330 329 328 329 328 328 329 329 329 329 332 332 332 331 327 333 334 328 342 6 11 46 80 83 55 30 13 19 16 13 13 8 5 348 301 78 58 80 202 302 92 176 218 204 187 191 214 218 163 198 221 195 197 202 204 200 173 162 200 210 172 164 180 206 234 220 224 224 222 211 163 156 153 154 165
343 341 338 335 334 333 331 331 329 329 328 328 329 329 328 327 327 327 327 326 327 329 328 331 331 332 331 329 333 332 334 27 337 6 51 62 64 50 25 16 23 17 16 21 19 25 25 54 69 58 84 138 294 131 220 240 167 205 232 226 217 168 206 230 200 205 202 210 219 176 173 193 167 180 188 172 194 227 215 224 224 194 171 178 170 160 158 160
344 342 340 337 335 332 331 331 330 329 328 327 326 326 326 326 325 324 324 324 325 326 327 329 330 333 331 330 333 333 358 301 333 26 20 48 63 31 22 26 29 20 15 22 24 36 37 37 54 61 61 69 204 202 262 291 126 230 251 276 271 176 195 244 199 217 207 205 223 199 186 161 147 215 209 187 205 215 208 206 200 182 167 169 160 160 166 166
344 343 341 339 337 334 332 331 329 328 327 325 325 324 324 324 323 322 320 321 322 322 326 327 330 333 330 333 340 9 58 275 347 45 345 157 61 17 31 37 34 23 24 31 27 33 37 33 46 73 69 95 215 244 282 320 352 238 257 327 317 194 208 249 227 246 225 213 230 199 146 164 186 215 198 204 225 208 211 203 167 166 158 150 161 179 179 175
344 343 342 340 337 335 334 331 328 327 327 325 325 324 322 322 320 319 317 317 318 320 323 324 331 333 328 338 357 24 320 247 136 82 96 171 34 26 36 40 33 23 37 43 33 36 54 44 37 46 78 145 82 331 323 337 354 304 260 309 323 254 241 274 296 279 263 238 258 6 180 194 195 191 164 216 236 209 202 200 148 143 150 158 180 190 183 176
344 342 341 340 337 335 333 331 330 328 328 326 324 322 320 319 316 316 315 313 314 316 319 323 330 330 327 340 23 343 294 199 146 105 66 24 353 28 31 34 27 21 37 41 37 44 63 63 12 46 130 221 29 343 351 12 284 337 281 297 316 294 287 308 306 283 280 258 252 253 239 225 208 184 240 222 226 225 196 173 156 142 154 174 190 192 183 180
344 342 340 339 338 337 335 333 331 329 328 326 323 321 319 317 315 313 311 310 310 311 315 321 324 326 331 352 60 329 279 174 152 136 11 356 342 360 15 24 20 20 24 16 33 48 82 140 281 73 159 335 3 307 14 132 247 306 274 290 292 281 292 319 296 302 325 272 206 227 250 245 197 201 237 230 213 221 202 169 179 159 168 176 184 195 193 196
344 342 341 339 339 339 337 334 332 329 328 326 324 322 319 317 314 310 308 307 305 306 310 315 319 320 325 11 113 241 238 178 215 299 311 317 321 318 324 3 17 18 12 3 12 38 113 168 236 92 118 41 345 302 319 167 299 292 276 314 303 300 300 265 272 291 308 268 211 203 254 13 131 209 229 231 202 204 207 194 184 177 187 180 179 190 197 220
344 342 341 340 340 338 336 332 331 331 329 328 326 322 318 316 313 308 304 300 299 300 300 303 310 313 315 123 197 243 283 277 276 286 286 291 300 299 291 283 331 360 349 347 334 353 104 88 62 79 234 70 348 318 299 283 292 279 359 339 311 340 309 250 248 248 187 249 195 151 261 258 195 227 229 214 190 200 206 209 199 188 190 175 179 188 195 220
343 342 342 340 340 337 334 332 332 332 330 329 326 321 321 319 314 305 298 291 285 281 284 288 287 308 352 250 249 294 315 301 288 284 279 280 279 273 262 246 229 286 299 301 304 315 314 292 83 98 228 100 240 267 342 319 303 277 181 149 303 340 295 231 201 209 187 234 172 137 241 244 221 233 227 178 178 195 201 219 217 214 210 180 183 194 202 212
342 341 341 340 339 336 334 334 333 332 331 329 325 326 327 325 318 308 298 283 266 254 258 260 258 319 46 264 279 336 326 309 336 339 318 288 266 252 239 232 234 272 295 299 295 309 308 254 108 79 349 127 232 294 360 350 4 334 257 177 186 243 268 225 187 184 201 247 166 146 233 240 237 241 220 159 181 185 191 217 213 209 215 199 191 198 206 207
342 340 340 340 338 335 335 335 334 333 331 328 329 333 332 331 334 334 324 274 216 204 200 191 221 275 37 277 296 342 341 350 4 5 6 342 264 224 235 237 246 279 303 304 300 309 323 136 106 87 251 330 36 25 6 347 359 16 251 264 218 212 275 319 241 181 195 248 149 157 232 238 240 247 217 149 180 188 192 208 207 200 196 197 192 195 204 208
341 339 338 338 336 335 335 335 334 332 330 331 337 340 339 347 15 34 53 84 122 154 155 158 197 139 111 283 322 352 9 11 353 351 353 346 299 199 13 23 345 338 324 290 294 310 145 123 98 121 134 27 66 86 33 350 332 356 172 237 271 234 263 311 294 207 186 209 191 195 230 236 240 255 241 136 173 191 205 213 216 212 201 204 195 192 202 206
340 339 338 337 335 334 335 335 334 332 332 338 343 348 360 12 53 73 79 84 103 127 116 125 157 121 273 289 325 349 349 338 336 338 339 339 314 260 19 45 16 352 346 338 77 82 111 74 50 93 53 50 92 98 63 290 271 312 25 121 290 260 165 218 284 255 181 189 220 224 233 238 248 276 37 115 169 183 204 211 215 214 202 208 202 195 202 203
340 339 338 336 335 334 335 334 334 334 336 344 348 359 21 28 87 91 92 93 99 111 87 87 135 99 303 310 331 330 330 327 326 327 332 340 328 296 27 43 356 355 13 36 46 60 52 358 58 82 20 28 58 99 146 236 207 191 153 118 292 259 174 200 249 277 19 212 226 235 242 244 256 268 357 89 163 183 208 211 210 212 199 203 205 201 202 204
340 340 338 336 336 335 334 333 334 336 340 354 359 10 21 24 109 99 90 90 87 116 48 29 145 14 293 300 309 313 319 318 315 314 326 352 49 122 61 36 9 30 42 37 349 19 87 22 47 86 32 55 158 143 160 183 130 126 139 129 134 258 238 245 248 304 15 337 246 239 248 252 262 271 296 346 209 197 223 231 225 220 202 197 205 206 203 207
340 339 337 337 336 334 334 333 335 338 343 358 3 6 11 8 18 331 329 318 205 209 271 241 187 276 294 291 304 321 321 316 308 285 300 343 88 112 58 25 23 37 56 137 272 8 89 89 57 154 175 179 188 163 149 150 111 100 94 80 55 25 283 284 284 311 17 355 264 256 268 271 271 279 290 280 259 235 234 234 239 236 218 197 200 208 207 210
341 339 337 337 335 333 333 332 336 343 348 2 12 27 48 360 6 329 325 310 261 231 249 245 208 239 265 272 289 322 334 334 319 288 279 287 132 110 346 21 41 9 313 228 260 3 72 105 209 189 186 183 177 156 141 123 81 85 100 62 345 262 262 275 279 297 352 358 272 293 301 287 275 278 279 262 253 251 238 221 224 235 231 207 200 208 209 214
341 339 338 336 334 332 331 333 339 349 1 23 35 60 151 348 347 302 320 316 294 255 238 263 242 250 264 267 271 276 69 328 319 307 258 189 138 166 254 60 107 226 304 16 15 6 39 224 224 207 184 156 148 140 136 135 114 107 107 105 262 249 272 281 283 307 343 340 287 313 309 288 279 274 269 255 239 245 245 230 220 224 229 216 205 213 211 213
340 339 338 336 334 333 331 337 349 359 9 31 48 51 352 343 345 328 336 290 295 300 262 277 226 261 290 282 241 162 122 212 292 309 222 146 130 177 142 106 151 206 330 106 169 142 11 246 220 203 174 142 145 136 131 132 122 138 133 130 221 223 186 275 294 320 325 293 259 297 301 285 277 272 261 247 241 251 259 256 243 225 224 215 203 212 214 212
340 339 338 336 335 334 334 342 9 10 2 24 59 35 7 348 343 347 347 215 293 299 254 227 203 231 283 356 147 145 132 206 206 288 210 139 119 153 152 157 141 196 253 194 187 195 227 247 204 147 148 155 179 172 137 147 201 221 184 166 193 188 187 229 283 327 327 308 253 271 288 279 266 264 262 249 247 259 261 263 262 242 229 222 208 210 217 219
340 339 338 337 335 336 341 351 12 5 358 44 72 11 6 1 351 360 6 67 322 293 248 228 254 215 205 100 149 169 172 252 219 235 202 160 154 149 189 177 131 216 240 202 189 233 248 245 151 110 160 155 155 207 181 169 189 279 223 195 189 176 193 233 288 352 347 314 309 36 276 272 285 272 262 253 251 254 243 242 249 245 231 218 214 214 215 224
339 338 338 337 335 340 357 19 354 356 4 72 14 340 349 353 342 3 38 50 349 305 325 349 326 309 296 150 174 180 41 300 258 246 219 195 181 156 170 220 120 217 221 179 176 239 251 225 187 206 220 173 163 220 227 168 139 309 243 198 184 174 183 217 234 70 231 255 286 53 185 268 314 291 262 250 253 255 251 247 245 244 234 210 208 216 212 215
339 338 338 336 336 343 355 334 339 352 26 5 338 330 335 338 334 354 50 43 6 303 310 297 346 26 314 235 152 92 325 301 298 287 220 200 200 155 179 217 169 210 183 135 262 237 210 208 194 210 211 187 186 221 222 161 131 249 236 166 156 172 188 206 202 195 222 264 292 275 184 240 288 268 246 226 256 267 264 257 249 240 234 220 208 212 214 214
338 339 338 334 335 336 315 310 333 355 23 331 332 334 331 328 328 27 77 67 316 285 325 298 311 334 315 333 74 214 272 306 316 304 16 164 191 148 206 216 185 208 187 150 234 246 169 172 192 194 192 202 205 204 195 165 152 238 223 152 155 175 182 192 185 213 251 314 294 261 173 216 267 242 198 207 246 261 252 246 245 238 235 229 216 211 212 217
340 342 339 330 328 326 304 302 315 338 344 334 331 330 328 326 347 59 77 89 279 289 84 356 313 301 329 342 313 252 280 307 214 274 13 101 112 83 198 217 165 197 215 183 220 239 186 192 192 176 171 202 210 202 181 166 188 231 177 114 99 115 135 171 167 203 257 229 256 248 166 202 262 210 177 218 232 242 243 244 246 243 242 234 224 217 210 215
343 344 336 321 321 327 317 305 310 337 339 338 328 323 330 347 71 57 42 300 275 299 16 360 325 330 353 344 318 283 271 272 257 293 355 54 5 36 128 227 103 145 232 246 228 229 250 256 185 168 177 190 194 200 184 179 191 170 124 97 22 26 54 70 138 137 229 247 247 241 188 188 256 211 195 223 224 226 235 249 258 252 246 237 225 218 208 207
345 344 327 309 312 315 310 313 334 335 327 330 328 329 352 41 69 74 65 227 268 312 343 356 315 330 359 346 313 300 282 295 303 290 305 299 348 25 44 359 43 71 280 286 264 250 263 269 228 226 189 146 142 191 206 193 187 150 142 156 24 321 21 26 347 125 203 248 244 237 202 189 239 228 209 239 237 216 219 230 242 244 244 238 226 219 206 200
346 343 318 299 299 294 295 306 320 322 317 323 333 353 73 51 27 68 268 335 332 297 334 317 289 313 335 318 281 282 295 302 293 197 208 226 218 211 198 194 177 239 255 235 255 284 251 222 224 249 214 149 139 178 228 185 175 161 144 129 135 256 52 113 249 178 221 247 250 231 188 198 243 244 245 268 267 250 243 238 234 240 252 254 238 227 213 195
347 341 321 305 295 299 311 316 317 316 313 321 341 46 80 71 23 254 271 330 259 254 301 291 284 299 314 313 281 268 267 257 253 211 201 201 234 241 235 217 194 214 243 212 208 289 284 275 221 202 228 172 154 168 195 198 184 170 156 149 159 168 149 205 227 215 236 251 265 252 204 226 268 250 224 240 248 245 248 254 251 245 250 259 255 244 231 209
348 339 321 311 310 316 319 318 318 316 318 329 27 69 60 73 264 268 276 281 263 277 295 294 304 303 294 261 257 254 243 240 213 197 224 154 237 254 251 234 206 212 235 180 180 197 251 292 218 185 207 179 182 193 179 148 162 183 159 145 167 173 178 200 209 227 248 271 270 233 213 211 239 233 211 218 232 236 236 243 252 254 251 252 260 256 245 229
349 335 320 325 345 351 333 313 316 327 334 356 65 63 63 126 254 292 271 259 277 299 288 288 303 302 291 231 259 245 202 242 204 176 227 190 226 236 221 223 202 190 171 180 204 184 227 268 236 212 217 181 195 199 153 128 157 200 144 135 193 189 159 176 222 240 247 331 328 223 230 229 225 272 267 250 254 242 230 230 235 248 252 248 254 254 247 237
360 21 23 14 11 4 344 326 330 343 353 39 70 56 99 201 235 214 243 262 294 311 306 307 290 272 303 310 279 253 189 235 266 259 240 217 243 240 207 217 193 181 181 182 196 159 191 269 261 231 240 208 203 189 162 165 175 170 152 177 200 154 119 230 268 300 43 13 292 231 251 276 299 290 271 261 269 262 242 234 227 235 244 244 246 246 243 239
6 46 52 19 7 357 343 339 349 355 12 73 73 52 203 236 233 215 258 283 300 318 309 310 292 196 292 295 272 279 180 242 243 237 253 218 250 239 204 226 185 188 194 179 205 207 174 270 275 201 213 237 207 164 192 193 161 138 181 186 137 112 163 201 245 302 30 313 283 235 243 261 269 274 270 248 251 255 250 244 237 236 237 238 242 243 239 234
354 22 45 12 4 8 19 348 358 14 47 80 47 15 209 246 247 243 267 289 303 330 237 273 224 180 261 276 283 272 192 228 237 221 250 230 235 183 168 223 199 197 202 185 219 251 161 261 283 209 205 260 68 122 225 243 177 163 189 175 146 167 206 185 195 217 204 238 267 255 246 240 222 242 285 262 247 251 250 242 241 240 234 234 239 243 243 233
354 23 25 2 4 33 52 360 12 38 64 70 28 335 231 263 270 265 267 281 285 261 253 250 214 213 243 254 285 282 213 233 268 259 243 201 232 196 165 204 225 206 197 182 194 223 146 197 285 296 223 347 42 144 198 235 233 226 249 184 164 164 198 175 184 196 178 211 240 261 255 250 225 210 223 243 245 248 252 246 238 234 230 232 233 235 240 233
19 58 2 354 5 43 34 347 16 44 54 58 313 256 268 277 278 279 272 266 237 219 243 240 227 245 254 257 273 277 243 242 253 257 227 189 240 241 193 186 215 206 187 182 187 189 152 195 244 320 14 105 208 207 184 181 195 196 204 213 187 171 172 138 186 207 195 195 204 240 258 260 259 219 212 232 238 235 240 244 245 242 235 234 233 228 228 227
26 55 333 348 355 25 13 359 22 40 36 5 266 254 290 293 282 291 282 251 206 221 235 247 260 267 266 275 273 251 257 261 235 227 244 221 209 248 228 189 176 149 155 174 195 194 181 199 215 261 301 204 216 208 191 188 187 188 198 202 194 190 168 145 203 209 208 218 205 235 267 262 258 251 232 236 240 236 233 233 239 247 244 238 235 231 227 223
42 82 331 358 354 313 20 14 5 37 57 276 304 273 280 292 282 290 297 295 234 233 233 245 259 266 259 268 276 243 249 268 235 216 251 244 210 222 242 199 177 154 135 171 210 198 168 140 231 238 237 241 243 210 198 202 190 192 214 208 197 193 179 188 205 197 202 227 242 270 280 280 268 258 251 251 251 248 243 235 231 238 243 240 240 239 233 227
51 232 307 11 9 187 54 27 333 16 289 269 301 280 270 281 278 289 305 324 308 241 247 255 241 239 235 239 269 265 246 255 230 213 253 274 239 230 227 197 181 164 138 187 206 186 161 144 233 252 263 264 259 217 204 212 193 207 230 217 205 202 198 204 202 179 203 220 223 246 267 281 276 262 242 245 254 258 261 256 243 238 239 238 238 239 232 228
7 258 279 6 16 94 102 54 314 328 308 300 302 289 283 271 269 303 306 309 308 277 300 285 243 233 246 241 256 245 221 233 235 227 248 265 247 245 236 214 213 203 186 202 173 164 186 185 204 253 278 262 245 209 204 209 200 214 222 210 212 207 197 206 218 201 246 232 204 214 261 265 265 275 281 275 280 279 271 264 250 241 235 228 229 233 227 220
348 312 268 352 23 56 103 121 127 306 318 327 310 297 305 281 267 296 294 281 271 274 309 290 270 265 270 288 287 262 225 217 238 255 248 245 266 274 270 240 221 209 214 215 184 166 194 185 177 213 243 245 233 212 198 194 191 206 207 199 204 202 195 202 208 200 231 238 196 189 241 254 265 300 306 293 298 299 286 278 264 251 241 227 224 226 218 201
35 33 307 330 17 49 83 87 78 37 335 341 320 306 324 321 302 302 302 274 259 320 317 277 277 282 288 321 312 291 253 219 224 249 270 269 279 276 290 284 249 228 231 222 193 158 170 206 206 215 234 244 246 239 170 144 179 197 194 192 195 197 197 192 176 203 213 214 273 239 238 258 280 290 290 290 297 302 299 295 283 268 250 235 225 219 206 187
72 48 360 334 340 21 36 23 41 25 334 337 323 315 327 325 321 325 329 305 296 321 306 250 266 316 312 322 314 291 284 248 226 241 264 262 260 269 289 298 283 246 235 216 181 153 174 241 222 224 240 247 250 250 212 169 202 203 185 184 189 191 194 194 202 207 154 111 250 244 231 255 277 277 280 290 297 299 298 291 285 276 259 249 233 208 195 186
63 134 141 98 310 345 4 342 350 339 312 280 251 314 326 324 332 343 324 307 309 319 312 259 296 318 318 319 315 289 301 299 243 234 254 256 277 304 303 303 322 342 317 170 166 163 216 259 224 220 249 255 250 250 236 206 222 208 180 181 184 185 191 200 210 207 161 200 238 253 277 263 269 276 281 285 290 291 287 285 285 277 261 248 217 185 184 182
63 82 302 360 41 233 248 292 315 321 310 289 269 345 344 322 322 328 310 306 311 308 306 296 305 319 323 318 314 304 306 310 291 273 281 282 289 304 309 297 331 36 50 94 189 153 169 265 236 213 255 267 256 242 224 203 218 202 182 181 182 188 194 200 213 218 221 243 259 281 290 277 271 273 276 280 284 282 279 283 284 275 259 230 201 189 186 181
73 107 308 329 290 259 246 283 313 318 315 317 298 327 337 303 309 324 317 287 290 296 309 307 308 316 317 309 306 290 278 293 297 288 283 287 283 265 237 256 250 53 100 165 206 177 175 245 241 201 263 294 290 189 167 179 207 190 186 187 185 189 192 201 217 221 232 254 260 266 274 275 271 269 273 280 282 281 284 289 283 267 248 221 204 195 188 185
43 296 300 317 297 299 290 295 326 329 313 333 343 329 322 271 306 326 311 252 238 268 291 307 310 314 310 304 297 279 275 291 291 283 274 267 261 235 219 230 203 340 281 195 188 201 208 255 308 290 312 322 329 109 133 151 111 326 235 207 189 187 191 203 212 202 215 237 249 262 265 261 265 274 284 284 283 288 293 293 287 269 237 216 209 200 191 187
30 321 294 277 294 330 356 317 330 352 287 299 323 329 311 289 307 323 311 278 246 258 268 297 307 310 312 310 306 299 301 298 284 277 270 257 250 242 242 241 232 242 273 267 259 212 204 254 308 330 342 309 311 63 119 124 98 275 245 209 187 189 196 201 208 210 219 227 235 247 249 251 262 277 288 289 292 296 294 288 287 283 261 232 222 209 192 182
Height
832 830 829 827 826 825 823 821 820 818 817 815 814 812 811 809 807 806 805 803 801 799 798 796 794 792 790 788 785 783 779 775 772 771 771 770 769 770 771 770 770 769 767 766 765 764 763 764 764 764 764 765 767 766 766 766 766 770 775 782 783 783 782 776 776 776 774 772 770 769 767 770 773 769 764 762 766 770 768 766 766 764 763 763 763 763 763 763
831 830 828 827 825 824 823 821 819 818 816 815 813 812 810 809 807 806 804 803 801 799 797 796 794 792 790 787 785 782 778 775 773 771 770 769 770 771 771 771 770 769 767 766 765 765 765 765 766 765 764 765 767 766 766 766 766 769 773 779 777 774 772 766 767 769 768 768 768 767 766 768 770 769 766 770 774 773 773 770 768 768 766 765 764 765 765 765
831 829 828 826 825 823 822 820 819 817 816 814 812 811 809 808 807 805 803 802 800 799 797 795 794 792 789 786 784 782 778 775 773 772 771 770 771 771 771 771 770 769 768 767 766 766 766 766 766 766 765 766 768 767 767 766 766 767 770 776 772 766 766 763 762 764 763 763 767 768 766 767 767 766 767 771 773 772 775 773 771 771 767 766 766 766 768 769
830 829 827 826 824 823 821 819 818 816 815 813 811 810 809 807 806 805 803 801 800 798 796 795 793 791 789 786 784 782 779 776 773 772 772 772 772 771 771 770 770 769 768 767 766 766 766 766 766 766 767 768 768 768 768 766 766 767 767 770 765 762 764 762 761 761 761 761 764 766 767 768 766 764 766 769 772 773 773 768 768 768 764 766 767 766 768 771
830 828 827 825 823 822 820 819 817 815 814 812 811 809 808 806 805 804 802 801 799 798 796 795 793 791 789 786 783 781 779 776 773 773 773 773 772 771 771 770 770 769 768 768 767 766 765 766 766 766 768 770 770 769 769 765 764 767 764 762 761 762 763 761 760 760 760 760 763 766 768 767 764 765 765 768 773 773 768 763 763 761 760 764 765 765 766 769
830 828 826 824 823 821 819 818 816 814 813 811 810 808 807 805 804 803 801 800 799 797 796 794 793 791 789 786 783 781 779 775 773 773 773 773 772 771 771 770 770 769 769 768 767 767 766 767 766 768 770 771 772 770 770 766 764 767 765 761 762 763 763 761 760 759 759 760 762 765 764 763 765 767 764 765 768 765 760 758 758 757 756 758 762 764 765 766
829 827 826 824 822 820 818 817 815 813 812 810 809 807 806 804 803 802 800 799 798 796 795 794 793 791 789 786 782 782 782 776 772 773 773 772 772 771 771 771 771 770 769 768 768 768 768 769 768 772 773 771 774 772 771 769 766 769 768 764 764 763 763 760 759 760 760 761 759 761 762 763 766 766 763 763 761 759 757 754 754 754 754 757 760 762 762 763
829 827 825 823 821 819 818 816 814 812 810 809 808 806 804 803 802 801 799 798 797 796 795 794 793 791 789 786 784 784 781 775 772 773 772 772 772 771 771 771 771 770 770 770 770 770 770 772 772 774 774 773 775 773 772 770 768 771 771 768 766 764 762 760 760 760 761 761 759 762 763 762 762 762 762 761 757 756 756 753 753 754 755 758 759 760 761 762
828 826 824 822 820 818 816 815 813 811 809 808 806 805 803 801 800 799 798 797 796 795 794 793 792 792 790 788 789 784 775 772 772 772 772 772 772 772 771 771 771 771 771 771 771 771 771 774 775 774 775 775 775 773 773 773 772 774 773 770 768 764 762 761 760 759 761 761 760 762 762 761 760 761 762 757 754 753 754 754 753 754 757 758 759 759 760 762
828 826 824 821 819 817 815 814 812 810 808 806 805 803 801 800 799 797 796 795 795 794 793 793 792 791 790 789 790 782 772 771 772 771 772 772 772 772 771 771 771 771 771 772 772 772 772 774 774 774 775 776 776 775 775 775 775 776 773 771 769 766 763 762 761 760 762 761 759 761 761 762 760 763 763 754 750 751 753 756 755 755 757 757 758 758 759 761
827 825 823 820 818 816 815 813 810 809 807 805 803 801 799 798 796 795 794 794 793 793 792 792 791 791 790 790 790 781 772 772 772 771 772 771 772 772 772 772 771 771 772 772 772 772 773 774 773 774 775 775 776 775 774 775 775 773 772 770 769 767 765 764 763 762 762 760 758 759 762 763 762 762 758 749 748 749 751 756 757 758 757 754 755 757 759 760
826 824 822 820 818 816 814 812 809 807 805 803 801 799 797 795 794 793 792 792 791 791 791 791 791 790 790 790 787 777 771 772 772 771 772 771 771 771 771 771 771 771 772 772 772 772 773 773 773 774 775 775 776 775 774 774 773 771 771 772 770 767 766 764 763 761 761 761 756 759 766 767 764 757 748 746 748 748 750 753 754 757 756 753 754 757 758 758
826 823 821 819 817 815 813 810 808 806 804 802 799 797 795 792 791 789 788 789 789 790 790 790 790 789 790 785 777 772 771 772 771 771 771 770 770 770 770 771 771 771 772 772 772 772 773 773 773 774 775 776 777 775 773 772 772 771 770 772 772 773 770 763 762 761 761 761 754 760 773 768 758 748 742 746 747 748 752 751 752 753 753 753 754 757 758 757
825 823 821 819 816 814 812 809 807 805 802 800 798 795 793 790 787 785 784 785 786 788 788 789 789 789 790 781 771 771 771 770 771 771 770 769 769 769 770 770 771 771 772 772 772 772 772 772 773 774 775 776 775 774 774 773 773 773 772 773 775 779 773 761 760 762 763 762 753 761 775 765 750 740 740 746 746 748 752 751 752 752 752 753 754 757 759 758
825 823 820 818 816 813 811 809 806 804 801 798 796 793 791 788 785 783 782 782 784 786 787 788 788 789 790 781 771 771 770 770 771 770 770 770 769 770 770 770 771 771 771 771 771 771 772 772 773 774 775 775 775 776 778 777 776 775 776 778 777 779 775 763 760 761 763 761 755 762 771 761 746 736 738 745 746 747 750 751 751 751 753 754 755 757 758 758
825 822 820 818 815 813 810 808 805 803 800 797 795 792 790 788 786 784 782 782 784 785 787 788 788 789 788 778 771 770 770 770 770 770 770 770 770 770 770 770 770 770 771 771 771 771 772 772 774 775 775 776 777 778 781 782 781 780 781 782 781 780 778 770 763 759 760 760 758 761 763 756 746 738 741 746 745 747 750 750 750 750 751 752 755 757 757 758
824 822 819 817 814 812 810 807 805 802 799 796 794 791 790 788 786 785 784 784 785 786 787 787 788 790 783 773 771 772 772 771 770 770 769 769 770 770 770 770 770 770 770 770 771 771 772 773 775 776 777 779 780 779 783 787 786 785 785 786 784 781 781 777 768 759 758 760 760 759 757 753 745 742 747 748 746 748 749 750 750 749 751 752 753 755 756 756
823 821 819 816 814 811 809 807 804 801 798 796 793 792 791 789 788 787 786 786 786 787 787 787 788 786 778 772 773 775 774 772 770 770 769 769 769 770 770 771 771 771 771 772 772 772 773 776 778 778 781 783 782 781 784 788 787 786 787 787 785 781 779 779 772 763 761 762 762 760 757 754 748 745 749 750 748 749 748 748 748 748 750 751 752 753 754 755
822 820 818 815 813 810 808 806 804 801 798 796 794 792 791 790 789 788 787 787 787 786 785 786 786 782 778 776 775 775 775 773 771 770 770 770 770 770 771 771 772 772 773 774 774 775 775 777 779 781 783 785 784 783 785 788 789 788 788 788 789 787 782 779 773 768 767 768 765 762 759 757 753 750 751 752 751 750 749 748 747 746 747 749 751 751 752 753
822 819 817 814 812 809 807 805 803 801 799 796 794 792 793 793 792 789 787 786 786 785 783 784 785 783 781 778 776 776 774 772 772 770 770 771 770 771 771 772 773 773 775 776 776 777 777 779 784 786 787 786 785 786 786 788 788 788 790 790 791 792 787 781 776 771 771 773 768 763 762 762 759 755 754 753 750 750 750 749 748 746 746 748 749 749 749 749
821 818 816 813 811 808 806 804 802 801 799 798 795 795 797 799 798 796 792 786 783 783 782 782 782 782 780 777 777 777 776 774 772 770 770 770 770 772 774 774 775 776 779 780 779 779 779 782 788 790 787 784 784 786 786 786 786 787 790 789 790 792 788 783 779 774 772 776 770 765 766 765 761 757 754 753 751 748 745 747 747 744 744 746 746 746 746 745
820 817 814 812 809 807 805 803 802 801 800 799 797 798 800 801 801 800 799 794 785 781 782 781 781 781 778 776 776 777 780 778 772 770 770 770 771 773 775 776 777 778 780 782 780 780 783 784 787 785 782 782 784 785 785 785 787 788 790 791 791 790 787 781 779 775 774 777 773 769 769 766 761 757 754 753 751 745 741 741 742 741 741 744 745 744 742 743
819 816 813 811 808 806 804 802 802 801 800 800 799 800 801 800 800 799 799 799 791 781 780 780 780 780 777 776 776 777 780 779 774 771 769 770 772 774 775 777 779 780 780 780 779 782 785 782 781 781 781 782 784 785 785 785 788 789 790 793 792 790 789 784 780 778 775 776 775 771 770 765 759 756 753 750 748 744 740 739 738 739 738 739 741 741 740 740
818 815 812 810 807 805 803 802 802 801 800 800 800 801 801 800 800 799 798 800 796 784 779 779 779 779 777 775 775 777 778 778 776 771 769 771 773 775 776 776 780 782 780 779 780 783 783 779 779 782 782 782 784 786 786 786 788 789 789 791 791 790 789 786 783 781 777 775 772 771 770 762 756 755 751 746 745 743 741 738 736 736 736 735 737 738 737 736
817 814 811 809 806 803 802 802 801 801 801 800 801 801 801 800 799 799 800 799 793 783 778 778 778 777 776 775 776 776 777 776 773 770 769 770 772 774 775 776 779 781 780 782 784 785 783 780 781 782 782 783 785 785 785 786 788 789 786 785 785 786 786 785 785 784 783 779 772 772 773 763 755 755 751 746 743 741 738 735 733 731 732 734 735 735 735 735
816 813 810 808 805 803 802 802 801 801 801 800 801 801 800 800 799 799 801 798 790 782 778 778 778 776 774 776 776 775 777 773 768 768 768 768 768 770 774 777 776 777 780 782 784 784 782 779 778 779 780 784 786 786 785 785 790 791 783 779 783 784 784 785 784 785 788 783 774 775 780 774 764 756 750 749 746 740 737 734 730 728 728 730 732 731 731 732
815 811 809 807 805 803 802 802 802 802 801 801 801 800 800 799 799 799 797 794 791 786 781 779 779 777 775 776 775 777 780 774 767 766 766 767 767 768 773 776 776 777 778 781 785 782 778 779 780 780 781 784 786 787 785 784 791 791 780 778 782 783 784 784 783 786 786 782 776 774 779 782 773 756 747 747 746 742 740 734 728 726 725 726 727 727 727 728
813 810 808 806 805 804 803 803 803 802 802 802 800 800 800 798 798 799 794 791 791 787 782 780 778 776 776 776 776 777 777 774 772 768 764 766 767 768 772 773 774 775 774 779 784 779 775 777 779 779 782 785 784 783 781 781 786 783 776 777 779 779 781 780 782 786 784 784 783 774 774 780 771 753 745 744 744 742 737 729 724 722 721 722 723 724 724 724
811 809 807 805 805 803 803 803 802 802 802 801 800 799 799 798 798 799 795 792 791 786 782 782 777 777 778 776 777 776 774 774 774 769 764 767 768 768 772 773 773 774 773 774 777 776 773 772 773 775 779 782 780 777 776 779 781 777 775 777 777 779 780 779 784 785 783 788 784 772 772 775 764 749 745 745 741 737 730 724 722 720 719 719 720 721 722 722
810 808 806 805 804 803 803 802 801 802 801 800 800 798 797 799 797 795 794 795 794 788 783 781 779 780 781 780 780 778 776 776 773 769 768 768 769 769 772 774 773 774 775 774 774 774 772 770 772 773 774 773 773 774 775 776 775 774 776 776 779 781 779 781 782 781 789 792 779 768 768 772 764 748 740 737 730 726 724 723 722 719 717 716 717 717 718 720
808 806 805 804 803 803 802 802 801 800 800 799 799 797 798 798 797 798 800 797 795 791 785 783 783 782 784 787 787 781 778 778 774 773 772 770 771 773 774 776 776 777 778 777 776 774 773 773 771 769 768 769 771 773 775 776 774 774 776 776 782 785 783 787 785 786 798 791 769 762 766 773 768 747 732 727 721 720 722 721 719 716 714 713 714 714 714 716
806 804 804 803 803 803 802 802 801 799 800 798 797 798 796 794 799 807 805 797 796 794 789 788 787 785 786 791 791 785 782 779 775 774 774 773 774 773 774 775 775 780 782 779 777 774 773 772 769 767 766 765 769 773 775 777 776 776 777 780 790 794 795 798 793 793 797 780 760 760 766 769 759 740 732 729 724 722 720 717 716 715 713 712 711 712 711 712
805 803 803 802 802 802 801 801 800 799 799 797 798 799 793 794 805 809 804 799 798 794 789 789 788 786 789 792 790 786 783 778 774 774 774 774 776 774 772 772 770 773 777 779 780 779 777 772 769 769 766 761 764 771 776 778 778 779 779 782 791 798 805 807 798 793 788 772 760 760 764 763 748 733 729 725 722 720 716 715 715 713 712 711 710 710 710 710
804 803 802 802 802 802 801 801 800 799 798 796 797 794 792 802 809 805 801 799 796 792 790 790 789 787 789 792 788 782 781 777 772 774 775 776 779 776 771 771 770 769 774 780 781 781 783 776 769 768 765 759 758 762 766 769 776 779 775 778 784 787 794 797 791 786 779 768 761 761 765 758 739 725 718 714 714 712 711 711 711 709 708 708 707 707 708 708
803 802 802 802 802 802 801 801 800 799 798 795 794 794 800 811 811 804 802 799 795 794 793 791 791 791 789 789 786 780 779 776 771 773 775 775 777 774 770 769 768 771 776 782 780 778 783 776 764 761 760 757 757 757 758 764 775 777 771 777 782 776 779 784 783 779 776 774 768 764 760 744 727 718 713 713 712 707 707 707 705 705 703 704 705 703 703 703
803 802 802 802 803 802 802 802 801 800 799 796 796 802 809 810 805 802 800 796 795 797 795 791 790 792 789 786 782 778 778 778 775 776 775 773 772 769 768 766 765 769 772 776 777 778 783 776 762 760 760 757 756 756 756 760 769 773 774 777 774 768 772 781 784 779 779 783 773 760 751 737 728 720 709 709 709 706 707 705 700 699 698 700 701 699 699 698
802 802 803 803 803 802 802 802 801 801 800 800 804 809 811 805 800 799 796 794 795 796 799 797 789 788 789 784 779 777 781 782 779 779 776 773 770 765 766 765 763 765 764 767 771 772 776 774 762 759 759 757 756 756 756 754 758 769 774 770 767 769 772 777 784 785 787 789 772 753 747 741 737 727 711 706 706 704 705 704 700 697 695 697 696 693 694 693
803 803 803 804 804 803 803 803 802 803 802 805 811 811 809 804 798 796 795 794 795 795 800 799 790 787 789 787 780 777 782 783 779 778 776 773 768 762 764 765 762 763 761 763 767 767 772 773 763 756 756 757 757 759 761 758 755 760 763 760 763 774 777 778 785 789 791 790 771 750 742 737 733 725 714 710 707 701 699 699 699 696 693 693 691 690 690 689
804 803 805 806 805 804 805 804 804 805 804 808 815 812 808 804 798 795 795 794 795 796 798 796 792 790 790 788 782 777 781 781 776 776 774 772 768 761 761 761 759 761 761 761 766 766 768 772 766 759 758 760 760 762 766 764 759 758 760 760 759 765 770 773 777 779 780 779 766 750 740 730 721 715 711 709 705 700 697 693 693 692 689 687 686 686 686 686
805 805 808 808 806 805 806 804 805 807 808 813 818 813 809 806 799 795 793 793 794 794 794 793 791 792 790 785 781 780 781 779 776 776 772 769 768 760 757 758 756 758 759 760 764 764 766 771 770 764 763 763 762 761 761 760 760 762 765 766 763 762 765 768 769 767 767 770 764 753 742 726 712 707 705 702 697 695 694 689 686 684 682 682 681 681 681 682
807 808 810 808 807 807 806 806 809 813 815 818 818 814 810 805 800 795 791 791 792 789 789 790 789 790 788 783 781 782 782 778 775 775 770 767 767 759 754 754 754 755 760 764 765 763 764 770 771 767 766 763 757 753 751 750 752 757 761 762 762 762 763 770 772 763 758 761 757 752 746 727 709 704 702 698 693 688 685 685 683 679 676 676 676 676 676 677
809 810 811 809 807 806 807 811 815 818 818 817 816 813 809 804 800 796 790 789 790 787 788 789 788 788 787 784 783 784 782 777 774 774 769 765 765 759 752 751 751 752 758 763 763 758 760 768 771 766 761 755 750 748 748 747 746 750 754 753 756 759 759 765 770 761 755 755 749 750 748 726 704 699 698 697 693 686 679 678 678 675 672 672 672 672 673 673
815 813 810 808 808 807 809 813 817 819 819 816 814 812 808 804 801 796 792 791 791 788 789 788 786 785 784 782 784 785 783 777 771 770 768 763 761 755 751 750 750 752 755 758 759 756 759 767 770 766 758 751 748 748 749 748 749 753 754 752 753 754 752 753 755 754 755 753 748 752 751 726 700 692 693 692 690 687 682 676 673 670 668 670 671 670 670 671
822 819 813 810 807 807 812 818 822 823 821 820 818 813 808 804 801 798 796 794 792 789 789 787 784 783 781 780 781 783 783 777 768 764 765 764 757 750 749 750 751 753 754 752 753 755 758 763 767 768 763 756 753 753 754 753 753 755 753 752 751 747 747 749 747 750 755 748 742 748 748 722 695 687 689 689 687 686 682 676 671 665 663 665 667 666 666 667
821 818 816 813 808 809 816 823 827 827 826 825 820 812 808 804 799 798 797 794 790 789 790 787 783 782 780 780 780 778 779 779 772 764 761 761 755 748 747 749 749 751 749 745 746 750 754 759 762 764 763 757 751 748 747 747 750 751 748 746 746 744 745 747 747 753 755 744 737 742 737 713 692 688 691 688 686 684 677 673 670 665 661 661 661 661 662 665
820 817 818 817 813 814 821 825 828 829 830 829 821 812 809 807 802 798 795 793 789 787 790 787 781 781 781 781 780 775 773 776 774 767 762 761 757 750 746 746 746 746 743 742 745 748 752 756 755 752 750 745 739 737 737 740 744 746 743 741 741 740 740 743 747 749 746 742 739 732 722 711 699 696 694 688 685 681 674 670 668 665 661 658 655 655 658 661
824 827 830 827 819 818 822 825 829 832 832 832 827 818 813 810 807 801 795 792 790 788 789 785 780 782 783 783 782 775 770 771 771 768 764 761 756 751 747 744 742 738 735 739 745 749 753 753 748 747 743 735 732 733 735 738 739 737 736 736 737 737 738 740 743 739 735 741 736 717 712 717 707 697 694 689 683 679 673 669 665 663 661 656 653 654 656 658
827 832 837 835 830 829 827 826 830 833 832 832 829 822 817 814 812 809 802 795 792 790 789 785 781 782 782 782 780 775 769 767 765 763 761 758 755 752 749 744 741 737 735 740 744 747 751 747 741 743 741 733 731 731 732 737 737 731 730 731 732 733 734 735 735 732 729 731 722 709 713 719 708 697 694 687 682 678 672 667 662 661 660 656 653 653 653 656
832 836 837 835 836 838 836 831 832 833 830 828 825 821 820 819 814 811 808 803 798 791 789 789 784 780 781 779 778 776 771 767 764 761 758 756 754 754 753 747 743 741 742 745 745 746 749 744 738 741 739 729 728 728 728 734 736 728 725 727 728 729 729 730 731 729 726 725 719 717 721 718 704 697 691 683 679 677 671 666 663 660 657 653 650 649 650 653
836 838 838 837 836 837 836 833 833 833 830 826 823 820 823 821 815 813 811 808 805 794 788 789 785 781 781 778 776 775 770 767 767 763 760 759 755 753 754 749 744 743 744 746 747 746 747 742 737 739 735 725 723 727 729 732 732 727 724 725 727 729 730 731 729 727 729 728 722 722 726 717 697 688 686 681 677 675 672 667 662 658 655 652 648 646 647 648
838 838 838 839 837 834 833 833 834 834 830 826 825 824 825 823 820 819 812 803 802 797 789 788 788 783 779 776 774 771 765 764 766 761 757 758 754 750 749 746 743 745 744 743 744 746 748 744 736 736 732 723 721 728 732 731 732 731 728 725 726 728 729 728 726 726 726 724 722 726 727 711 690 684 686 682 676 674 671 666 660 655 653 651 648 644 643 644
838 837 837 839 838 834 833 834 834 832 827 826 827 827 827 824 822 823 815 800 795 793 789 790 790 786 780 774 768 764 761 760 759 753 750 750 748 746 744 741 742 745 745 743 741 741 744 742 736 734 732 725 724 728 730 732 735 732 723 718 721 724 725 723 722 721 718 718 722 724 711 693 683 686 687 681 674 671 668 665 661 655 650 649 648 644 642 642